User: anonymous   Login
Location: Unspecified
(0.0000°N, 0.0000°E)
Time: 08:09:00
(UTC+00:00)
Language:

ARGOS - Orbit

View from above orbital plane
View from above orbital plane
View from above satellite
View from above satellite

Ground track
Ground track

The orbit data is extracted from the following two-line orbital elements,

1 25634U 99008A   19345.75227512 -.00000003  00000-0  18192-4 0  9998
2 25634  98.4900  27.6391 0011312 103.7653 256.4784 14.19363582 77207
Epoch (UTC): 11 December 2019 18:03:16
Eccentricity: 0.0011312
inclination: 98.4900°
perigee height: 819 km
apogee height: 835 km
right ascension of ascending node: 27.6391°
argument of perigee: 103.7653°
revolutions per day: 14.19363582
mean anomaly at epoch: 256.4784°
orbit number at epoch: 7720

The dashed part of the orbit path shows where the satellite is in the earth's shadow,  

DLR